When you browse on this site, cookies collect data to enhance your experience and personalize the content and advertising you see.
Visit our Privacy Policy to learn more. By continuing to use the site, you agree to this use of cookies and data.

Hourly Weather Leipzig

Today, 29 September, Tuesday

Time Temperature Precipitation Wind Pressure Humidity
00:00 +12°C° 0 mm 1 mps 750 mmHg 73%
01:00 +12°C° 0 mm 1 mps 750 mmHg 73%
02:00 +12°C° 0 mm 1 mps 750 mmHg 74%
03:00 +11°C° 0 mm 1 mps 750 mmHg 75%
04:00 +11°C° 0 mm 1 mps 750 mmHg 77%
05:00 +11°C° 0 mm 1 mps 750 mmHg 76%
06:00 +11°C° 0 mm 1 mps 751 mmHg 75%
07:00 +11°C° 0 mm 1 mps 751 mmHg 75%
08:00 +12°C° 0 mm 1 mps 751 mmHg 71%
09:00 +13°C° 0 mm 1 mps 751 mmHg 67%
10:00 +15°C° 0 mm 1 mps 751 mmHg 63%
11:00 +16°C° 0 mm 1 mps 751 mmHg 59%
12:00 +18°C° 0 mm 1 mps 751 mmHg 55%
13:00 +19°C° 0 mm 1 mps 751 mmHg 51%
14:00 +19°C° 0 mm 1 mps 751 mmHg 51%
15:00 +19°C° 0 mm 1 mps 751 mmHg 51%
16:00 +20°C° 0 mm 1 mps 751 mmHg 51%
17:00 +18°C° 0 mm 1 mps 751 mmHg 59%
18:00 +15°C° 0 mm 1 mps 751 mmHg 66%
19:00 +13°C° 0 mm 1 mps 752 mmHg 74%
20:00 +13°C° 0 mm 1 mps 752 mmHg 76%
21:00 +13°C° 0 mm 1 mps 752 mmHg 77%
22:00 +12°C° 0 mm 1 mps 752 mmHg 79%
23:00 +12°C° 0 mm 1 mps 752 mmHg 81%

Tomorrow, 30 September, Wednesday

Time Temperature Precipitation Wind Pressure Humidity
00:00 +12°C° 0 mm 1 mps 752 mmHg 83%
01:00 +11°C° 0 mm 1 mps 752 mmHg 85%
02:00 +11°C° 0 mm 1 mps 752 mmHg 86%
03:00 +10°C° 0 mm 2 mps 751 mmHg 87%
04:00 +10°C° 0 mm 2 mps 751 mmHg 87%
05:00 +10°C° 0 mm 2 mps 751 mmHg 87%
06:00 +12°C° 0 mm 1 mps 751 mmHg 88%
07:00 +12°C° 0 mm 1 mps 751 mmHg 88%
08:00 +13°C° 0 mm 1 mps 751 mmHg 82%
09:00 +15°C° 0 mm 1 mps 751 mmHg 75%
10:00 +18°C° 0 mm 1 mps 751 mmHg 69%
11:00 +19°C° 0 mm 1 mps 751 mmHg 66%
12:00 +20°C° 0 mm 1 mps 750 mmHg 62%
13:00 +19°C° 0 mm 0 mps 750 mmHg 58%
14:00 +18°C° 0 mm 0 mps 750 mmHg 59%
15:00 +18°C° 0 mm 0 mps 749 mmHg 59%
16:00 +20°C° 0 mm 1 mps 749 mmHg 59%
17:00 +19°C° 0 mm 1 mps 749 mmHg 64%
18:00 +18°C° 0 mm 1 mps 749 mmHg 69%
19:00 +15°C° 0 mm 1 mps 749 mmHg 74%
20:00 +14°C° 0 mm 2 mps 749 mmHg 76%
21:00 +14°C° 0 mm 2 mps 749 mmHg 78%
22:00 +13°C° 0 mm 2 mps 749 mmHg 81%
23:00 +13°C° 0 mm 2 mps 748 mmHg 82%

Day after tomorrow, 1 October, Thursday

Time Temperature Precipitation Wind Pressure Humidity
00:00 +12°C° 0 mm 1 mps 748 mmHg 83%
01:00 +12°C° 0 mm 1 mps 748 mmHg 84%
02:00 +12°C° 0 mm 1 mps 747 mmHg 85%
03:00 +11°C° 0 mm 1 mps 747 mmHg 86%
04:00 +10°C° 0 mm 2 mps 746 mmHg 87%
05:00 +10°C° 0 mm 2 mps 746 mmHg 86%
06:00 +10°C° 0 mm 2 mps 746 mmHg 86%
07:00 +10°C° 0 mm 2 mps 746 mmHg 86%
08:00 +13°C° 0 mm 2 mps 745 mmHg 78%
09:00 +15°C° 0 mm 2 mps 745 mmHg 71%
10:00 +17°C° 0 mm 2 mps 745 mmHg 63%
11:00 +18°C° 0 mm 2 mps 744 mmHg 59%
12:00 +19°C° 0 mm 2 mps 744 mmHg 55%
13:00 +21°C° 0 mm 2 mps 743 mmHg 51%
14:00 +21°C° 0 mm 2 mps 743 mmHg 52%
15:00 +21°C° 0 mm 2 mps 743 mmHg 53%
16:00 +21°C° 0 mm 2 mps 742 mmHg 54%
17:00 +19°C° 0 mm 2 mps 742 mmHg 61%
18:00 +17°C° 0 mm 3 mps 742 mmHg 68%
19:00 +14°C° 0 mm 3 mps 742 mmHg 75%
20:00 +14°C° 0 mm 3 mps 742 mmHg 78%
21:00 +14°C° 0 mm 2 mps 742 mmHg 81%
22:00 +14°C° 0 mm 2 mps 742 mmHg 84%
23:00 +13°C° 0 mm 2 mps 742 mmHg 84%

2 October, Friday

Time Temperature Precipitation Wind Pressure Humidity
00:00 +13°C° 0 mm 2 mps 742 mmHg 84%
01:00 +13°C° 0 mm 1 mps 742 mmHg 84%
02:00 +13°C° 0 mm 1 mps 742 mmHg 85%
03:00 +13°C° 0 mm 1 mps 742 mmHg 86%
04:00 +12°C° 0 mm 1 mps 742 mmHg 88%
05:00 +12°C° 0 mm 1 mps 742 mmHg 88%
06:00 +12°C° 0 mm 1 mps 742 mmHg 89%
07:00 +12°C° 0 mm 1 mps 742 mmHg 89%
08:00 +14°C° 0 mm 2 mps 742 mmHg 83%
09:00 +15°C° 0 mm 2 mps 741 mmHg 77%
10:00 +17°C° 0 mm 3 mps 741 mmHg 72%
11:00 +18°C° 0 mm 4 mps 741 mmHg 70%
12:00 +18°C° 0 mm 4 mps 741 mmHg 68%
13:00 +19°C° 0 mm 5 mps 741 mmHg 66%
14:00 +19°C° 0 mm 5 mps 741 mmHg 66%
15:00 +19°C° 0 mm 5 mps 741 mmHg 65%
16:00 +19°C° 0 mm 6 mps 740 mmHg 65%
17:00 +17°C° 0 mm 6 mps 741 mmHg 70%
18:00 +16°C° 0 mm 6 mps 741 mmHg 74%
19:00 +15°C° 0 mm 5 mps 741 mmHg 79%
20:00 +14°C° 0 mm 5 mps 741 mmHg 80%
21:00 +14°C° 0 mm 5 mps 741 mmHg 81%
22:00 +13°C° 0 mm 5 mps 740 mmHg 82%
23:00 +13°C° 0 mm 5 mps 740 mmHg 84%

3 October, Saturday

Time Temperature Precipitation Wind Pressure Humidity
00:00 +12°C° 0 mm 5 mps 740 mmHg 86%
01:00 +12°C° 0 mm 5 mps 740 mmHg 88%
02:00 +11°C° 0 mm 6 mps 739 mmHg 88%
03:00 +11°C° 0 mm 6 mps 739 mmHg 88%
04:00 +11°C° 0 mm 6 mps 738 mmHg 88%
05:00 +11°C° 0 mm 6 mps 738 mmHg 89%
06:00 +11°C° 0 mm 6 mps 738 mmHg 90%
07:00 +11°C° 0 mm 6 mps 738 mmHg 91%
08:00 +13°C° 0 mm 6 mps 738 mmHg 86%
09:00 +15°C° 0 mm 6 mps 738 mmHg 81%
10:00 +16°C° 0 mm 7 mps 738 mmHg 75%
11:00 +19°C° 0 mm 6 mps 737 mmHg 72%
12:00 +20°C° 0 mm 6 mps 737 mmHg 69%
13:00 +21°C° 0 mm 6 mps 737 mmHg 66%
14:00 +21°C° 0 mm 5 mps 737 mmHg 66%
15:00 +21°C° 0 mm 4 mps 737 mmHg 66%
16:00 +22°C° 0 mm 3 mps 737 mmHg 66%
17:00 +20°C° 0 mm 3 mps 737 mmHg 72%
18:00 +19°C° 0 mm 3 mps 738 mmHg 78%
19:00 +17°C° 0 mm 3 mps 738 mmHg 84%
20:00 +17°C° 0 mm 3 mps 738 mmHg 84%
21:00 +16°C° 0 mm 3 mps 738 mmHg 84%
22:00 +16°C° 0 mm 3 mps 738 mmHg 84%
23:00 +14°C° 0.1 mm 4 mps 738 mmHg 84%

4 October, Sunday

Time Temperature Precipitation Wind Pressure Humidity
00:00 +14°C° 0.1 mm 4 mps 738 mmHg 83%
01:00 +13°C° 0.1 mm 5 mps 738 mmHg 83%
02:00 +13°C° 0.8 mm 5 mps 737 mmHg 86%
03:00 +12°C° 0.8 mm 5 mps 737 mmHg 88%
04:00 +12°C° 0.8 mm 5 mps 737 mmHg 91%
05:00 +12°C° 1.6 mm 5 mps 737 mmHg 91%
06:00 +11°C° 1.6 mm 4 mps 737 mmHg 91%
07:00 +11°C° 1.6 mm 4 mps 738 mmHg 91%
08:00 +12°C° 0.2 mm 3 mps 738 mmHg 85%
09:00 +14°C° 0.2 mm 2 mps 738 mmHg 80%
10:00 +15°C° 0.2 mm 2 mps 738 mmHg 74%
11:00 +16°C° 0 mm 1 mps 739 mmHg 68%
12:00 +18°C° 0 mm 1 mps 739 mmHg 62%
13:00 +19°C° 0 mm 1 mps 739 mmHg 56%
14:00 +19°C° 0 mm 1 mps 739 mmHg 58%
15:00 +19°C° 0 mm 1 mps 739 mmHg 59%
16:00 +19°C° 0 mm 1 mps 739 mmHg 61%
17:00 +18°C° 0 mm 1 mps 739 mmHg 67%
18:00 +15°C° 0 mm 1 mps 739 mmHg 73%
19:00 +14°C° 0 mm 1 mps 740 mmHg 80%
20:00 +14°C° 0 mm 2 mps 740 mmHg 81%
21:00 +14°C° 0 mm 2 mps 741 mmHg 82%
22:00 +13°C° 0 mm 2 mps 741 mmHg 82%
23:00 +12°C° 0 mm 3 mps 742 mmHg 83%
Show more